星链-11562 (STARLINK-11562)

导读

STARLINK-11562是美国太空探索技术公司(SpaceX)星链(Starlink)星座中的一颗卫星,于2025年2月8日发射升空。该卫星运行在近地轨道,属于星链全球卫星互联网项目的组成部分,旨在为全球范围内用户提供低延迟、高速率的宽带互联网接入服务,进一步扩充星链星座的网络覆盖与服务能力。

Basic Information
目录编号:
62918
目录名称:
STARLINK-11562
国际标识:
2025-027M
轨道中心:
EARTH
卫星名称:
星链-11562
卫星全名:
星链-11562 (STARLINK-11562)
卫星状态:
在轨 (已飞行574 天)
发射日期:
2025-02-08 UTC
国别 :
美国 (US)
星等 :
--
Orbit Information
数据来源 国际轨道数据
星历时间: 2026-09-04T16:30:49+0800
23小时前
查看轨道信息
半长轴: 6734.661km
偏心率: 0.0003873
轨道倾角: 43.000°
近地点辐角 296.711°
升交点赤经 350.537°
平近点角 63.336°
近地点: 353.915km
远地点: 359.133km
周期: 91.671分钟
每日圈数: 15.708299
Detailed Information
固有亮度:
5
最大亮度:
2.5
卫星平台:
Starlink V1.0
覆盖范围:
全球
运营商:
太空探索技术公司
运营商所在国:
美国
制造商(研发单位):
太空探索技术公司
制造商所在国:
美国
使用方式:
暂无
Satellite Introduction
Starlink 计划是 SpaceX 推出的全球卫星互联网项目,通过发射低轨道卫星,为全球尤其是偏远地区提供高速、低延迟的互联网服务。自 2019 年起,Starlink 已部署数千颗卫星,旨在缩小全球数字鸿沟,推动互联网普及。该项目还为军事、航空等行业提供通信支持,带来广泛经济效益。
2D Orbit Map
3D Orbit Map
Orbit Altitude Analysis Chart
Orbit Inclination Analysis Chart
Orbit Comprehensive Analysis Chart
View Comprehensive Chart
Conjunction Data List
Event ID Objects TCA Miss Dist (km) Collision Risk Probability Collision Risk Index (CRI) Action
CDM_260903-021606-120606-291821
2026-09-03T
02:16:53+0000
2.649 km
极远距离
6.195629E-7 极低风险 0.31